RH
57 55 54 54 54 56 59 60 60 61 58 56 55 56 56 56 58 58 55 52 49 50 51 51 53 55 55 54 51 49 50 51 53 54 55 57 59 62 62 63 64 60 57 57 58 57 55 53 50 45 42 43 45 48 50 51 52 52 51 49 48 46 44 43 42 39 35 35 37 35 33 33 34 33 32 31 35 45 50 51 53 52 50 46 46
58 56 54 52 51 52 54 56 55 54 53 51 51 50 50 49 49 49 48 47 45 44 43 43 47 50 54 57 51 48 49 49 52 54 55 58 59 60 61 61 62 60 58 58 59 58 57 54 51 47 44 44 46 48 50 52 52 52 51 49 47 44 41 38 36 34 31 31 32 33 34 36 38 37 34 33 35 45 53 53 51 50 48 43 41
57 56 54 51 50 50 48 50 49 47 49 50 50 51 49 48 48 48 47 46 45 44 42 42 42 43 48 53 52 49 47 48 51 53 56 59 59 59 59 60 61 61 59 59 59 59 57 54 51 48 46 46 45 47 50 53 53 51 50 49 46 40 35 31 30 30 32 34 30 29 31 32 37 37 35 36 36 41 46 45 44 44 42 39 38
57 55 51 49 50 50 47 44 43 43 46 47 48 48 48 47 47 47 47 46 45 45 44 44 43 42 42 45 49 47 46 46 48 52 56 59 59 59 59 60 61 62 61 61 61 60 56 53 51 48 46 46 44 46 51 54 52 49 47 46 43 36 32 30 29 29 35 38 36 33 30 30 33 36 36 37 37 36 37 37 37 37 35 34 33
59 53 49 48 49 48 43 41 42 45 46 47 47 47 47 47 46 45 45 45 45 45 44 45 44 41 41 43 47 45 45 45 45 51 57 59 60 60 59 59 61 63 63 62 61 58 55 53 51 48 46 44 43 48 53 53 49 46 45 45 40 34 31 32 34 34 40 43 43 38 30 30 31 34 37 35 34 32 32 33 33 33 31 30 28
55 51 51 48 46 42 38 41 45 47 48 49 50 49 49 48 48 47 46 46 46 47 46 46 43 41 42 44 44 44 44 44 44 50 59 62 60 59 60 59 62 64 65 63 58 56 54 54 51 48 45 44 47 52 53 49 45 43 44 44 37 32 31 36 43 43 45 46 47 42 32 30 31 32 33 31 30 30 31 31 31 32 31 30 29
52 53 55 50 41 36 36 42 46 47 48 49 50 50 52 53 52 53 52 51 51 50 49 47 46 45 46 48 46 44 44 45 45 49 58 62 57 57 59 60 62 64 65 62 58 57 56 55 53 49 47 47 52 54 51 46 42 42 43 40 34 31 29 35 43 43 46 48 49 46 36 32 30 29 30 30 30 31 31 30 30 31 32 33 31
50 51 54 49 39 36 40 45 48 48 49 50 51 52 56 57 56 57 57 57 57 56 53 50 51 51 51 53 54 50 49 49 47 51 58 59 56 57 58 58 60 64 64 60 59 60 59 57 54 51 51 52 55 53 48 44 42 43 40 35 31 29 29 34 40 42 47 49 48 46 40 35 31 29 29 31 33 33 33 32 33 34 36 37 34
53 54 52 47 38 40 45 48 49 49 50 51 53 54 57 58 58 59 59 60 61 60 58 55 55 55 54 57 61 59 57 54 51 56 62 57 57 59 58 58 59 64 65 63 63 64 64 60 55 51 51 53 54 50 45 44 43 42 38 31 29 28 32 38 41 43 46 43 41 42 41 36 31 29 30 32 33 33 34 35 37 38 39 39 36
55 57 52 43 38 42 45 46 48 48 50 52 54 56 59 60 60 61 61 62 62 62 60 59 57 57 57 59 64 65 61 58 57 62 64 57 56 58 57 60 60 63 65 64 66 67 67 63 56 51 50 53 53 48 44 43 42 38 33 28 27 31 38 43 43 47 47 40 34 32 34 34 30 28 30 32 33 34 36 37 39 41 41 41 40
50 51 48 41 39 42 45 47 49 49 51 54 56 58 61 62 62 62 62 60 62 63 61 60 59 59 60 62 66 67 63 60 63 64 62 58 56 59 59 62 62 63 64 63 66 68 67 63 55 51 51 54 51 44 41 40 36 31 28 26 27 32 40 46 46 48 48 44 38 31 29 30 29 29 31 33 34 36 38 39 41 42 43 43 44
49 49 44 39 40 44 49 52 52 52 54 57 59 60 62 62 62 62 61 61 62 63 62 60 60 61 62 65 67 67 66 63 65 64 60 58 57 60 59 60 62 63 65 64 66 68 65 60 53 48 47 49 43 36 34 33 29 26 25 25 27 32 40 46 46 46 47 44 38 33 29 28 29 29 32 35 37 39 40 41 43 45 46 47 47
49 49 45 43 44 46 52 55 54 55 58 60 62 62 62 61 62 62 62 62 62 61 62 61 62 65 65 65 66 67 68 65 67 67 62 58 57 60 58 58 61 62 66 65 67 69 65 59 52 46 42 40 33 29 29 27 24 23 23 22 24 30 37 42 44 42 43 39 29 27 27 28 29 30 34 37 39 41 43 44 47 49 49 49 49
50 52 52 52 49 48 52 54 54 57 61 62 62 62 62 61 61 62 64 64 62 61 60 62 65 67 67 65 66 68 69 68 70 70 66 64 61 62 61 61 62 62 66 67 68 69 63 56 50 45 42 35 29 27 26 23 21 21 20 20 23 29 35 38 42 40 39 36 27 24 25 28 30 32 36 38 40 42 44 47 48 51 51 51 51
52 58 60 58 53 51 54 55 56 59 63 62 63 66 65 62 63 67 69 67 64 62 60 64 66 66 67 66 69 70 69 70 71 71 69 68 66 64 63 63 65 65 67 67 68 67 60 54 48 44 40 32 27 26 24 21 19 18 18 20 24 30 37 39 43 43 39 35 29 26 24 27 31 33 37 38 41 43 46 47 48 49 51 52 52
52 61 64 63 57 54 55 56 57 61 63 65 71 71 66 64 69 72 70 68 67 65 65 66 67 66 68 69 71 70 69 70 70 70 69 69 68 66 65 65 67 68 67 67 68 67 59 52 46 42 35 28 26 25 22 19 18 18 18 21 25 31 37 41 44 44 37 33 32 30 26 27 30 33 36 39 42 45 47 47 46 46 47 49 51
54 62 64 66 61 56 57 58 59 64 65 70 77 70 64 68 71 69 66 66 66 66 67 68 69 69 70 71 71 70 71 71 70 69 69 69 69 68 67 67 69 68 67 68 69 66 57 48 43 37 30 26 27 26 22 20 19 19 19 22 28 32 37 42 45 42 35 35 34 30 27 28 30 32 36 40 43 45 45 45 45 44 44 44 45
55 58 60 67 64 58 59 61 63 66 69 72 74 67 64 69 68 67 66 64 65 65 67 67 68 69 70 71 71 71 72 72 71 70 71 71 70 70 69 69 70 68 68 68 66 61 53 47 42 34 29 29 29 26 22 21 20 20 20 24 30 34 37 42 43 39 35 36 34 27 27 29 32 36 39 42 44 43 43 42 41 41 42 42 42
56 56 56 64 66 63 61 62 63 65 71 72 69 65 63 65 66 68 67 64 64 66 67 66 66 68 69 71 71 70 71 73 72 70 71 72 71 71 69 70 70 68 68 65 61 56 51 46 40 34 32 32 29 26 22 20 20 19 21 27 35 38 41 46 44 38 35 36 32 28 29 32 35 41 44 45 45 44 42 41 39 40 41 42 42
57 57 57 63 66 67 64 61 63 65 71 73 69 64 62 65 66 67 66 64 65 67 66 64 65 66 67 69 70 69 71 75 74 70 71 72 73 72 69 69 68 66 65 62 58 54 49 44 38 37 36 33 29 25 21 20 19 19 24 31 38 42 46 48 45 39 37 35 30 28 30 34 38 43 46 45 44 43 40 39 39 40 42 42 41
57 57 58 62 63 66 67 63 63 67 71 73 68 62 62 66 67 65 63 62 64 66 64 63 64 65 67 67 68 70 72 76 75 72 72 73 73 72 71 69 66 63 62 60 57 51 46 42 40 39 37 33 29 24 21 20 20 21 27 34 38 44 49 47 42 39 37 34 28 29 32 35 39 42 45 44 42 41 39 38 38 39 40 39 39
59 58 55 59 60 63 69 64 61 64 67 72 69 64 63 65 64 61 59 59 60 60 59 61 63 64 65 64 66 70 71 73 74 72 73 72 72 71 70 68 65 62 60 57 52 47 44 41 40 40 38 35 31 27 24 22 22 24 30 37 40 45 49 45 40 37 37 33 28 30 34 36 39 40 42 41 40 39 38 38 37 39 39 39 38
61 59 54 58 60 61 66 65 60 60 64 72 74 71 67 64 61 57 58 58 58 58 59 60 61 62 61 60 63 68 68 69 70 70 70 69 69 69 68 68 65 60 57 53 48 44 42 40 40 39 39 38 38 36 34 30 26 27 35 41 43 44 47 44 37 35 36 32 29 32 35 36 38 39 39 38 38 38 38 37 37 37 38 38 38
59 59 56 59 59 59 61 61 58 58 63 67 70 72 70 65 60 56 55 56 57 58 59 57 58 57 57 60 61 63 63 64 67 67 66 65 64 64 64 63 61 56 52 49 45 42 42 43 42 40 40 41 42 41 40 39 34 33 38 42 43 45 44 39 33 34 35 30 30 34 35 37 38 37 37 37 37 37 36 36 36 36 35 36 36
59 59 57 59 58 58 58 57 57 60 63 62 62 65 65 64 63 59 54 55 57 57 56 55 55 55 56 60 61 61 61 61 63 65 65 63 62 61 60 58 54 52 49 46 43 41 43 46 44 43 43 42 42 41 40 38 35 35 38 41 43 44 40 35 32 34 35 31 32 35 34 36 36 35 37 37 37 35 35 35 34 35 36 37 37
59 58 56 59 58 57 57 56 57 61 63 62 60 57 59 61 61 62 57 54 55 54 54 53 52 54 54 57 58 57 60 60 59 62 64 63 62 60 58 56 54 52 50 46 43 41 43 45 46 46 44 41 39 39 38 35 31 32 37 40 41 42 38 33 31 34 38 34 33 34 33 34 34 35 38 37 36 33 33 33 33 35 37 39 40
57 58 55 59 59 56 58 57 56 58 59 59 58 55 61 65 60 60 58 53 53 51 51 52 50 52 55 56 55 54 55 56 56 58 60 61 62 61 59 57 54 52 49 47 43 41 42 46 49 48 42 38 35 34 34 32 30 33 37 40 39 39 36 31 31 34 38 36 31 32 32 32 34 36 37 35 33 32 32 32 34 37 40 42 43
55 57 54 59 59 55 55 56 56 57 57 57 56 54 59 65 60 57 57 58 59 53 49 52 52 53 55 54 55 58 55 51 53 55 56 60 64 65 63 59 55 51 48 47 45 43 45 46 46 44 39 37 37 35 32 30 32 35 37 38 38 38 36 31 32 34 39 39 32 31 32 32 35 36 35 33 32 31 32 34 36 39 41 43 44
54 55 53 57 57 54 53 54 56 56 56 56 55 54 55 58 57 55 59 66 67 58 49 51 52 52 52 52 55 60 59 55 53 53 54 60 66 66 64 61 56 52 48 47 48 48 47 45 43 41 40 38 38 37 34 30 32 35 36 38 38 38 36 32 33 34 39 43 35 30 31 33 35 35 34 32 31 32 34 36 38 39 40 42 44
51 53 52 53 53 53 53 53 55 55 56 56 54 53 53 54 54 55 60 64 67 62 52 49 50 52 51 51 53 54 57 56 51 50 50 54 59 58 60 62 58 54 50 48 48 47 44 43 42 42 41 38 37 38 35 30 32 36 38 38 39 37 36 33 34 36 39 43 38 30 31 34 34 34 32 31 32 34 36 37 38 40 42 43 44
50 52 51 51 51 51 52 53 53 55 56 54 53 52 53 53 54 55 55 57 60 59 53 49 52 55 52 49 50 50 51 49 46 47 48 48 51 50 53 56 55 52 49 47 47 46 45 45 43 42 42 38 37 36 32 29 32 37 38 38 39 36 36 37 36 36 38 41 41 35 32 33 33 32 31 31 33 35 37 39 40 42 43 43 43
50 51 49 51 52 51 52 53 52 54 55 53 52 52 52 54 55 55 54 54 53 51 50 50 52 53 50 49 49 47 47 46 47 48 48 49 50 51 50 49 50 48 46 46 46 46 45 43 39 38 39 37 36 34 32 33 34 36 37 37 37 35 36 38 34 34 36 39 43 41 37 34 32 32 32 32 34 36 39 42 43 43 44 43 42
49 50 49 50 52 50 50 53 52 52 54 53 52 52 52 54 55 54 54 54 52 50 48 46 46 45 44 46 45 46 47 48 49 49 50 50 50 50 50 49 48 48 46 46 45 43 41 39 38 39 41 39 37 34 33 36 36 39 41 38 36 35 35 36 33 35 37 38 41 42 43 41 36 34 34 34 35 38 41 43 44 44 44 42 39
49 49 50 51 50 49 49 51 52 52 53 53 52 53 54 53 53 53 53 52 50 50 48 45 45 44 42 42 43 46 47 47 47 48 49 48 49 48 48 47 46 46 46 45 43 40 40 42 42 42 43 42 40 38 35 35 38 41 42 39 36 35 36 36 35 36 38 38 38 40 44 44 42 41 39 37 37 40 43 44 45 45 43 41 38
49 50 51 50 48 47 49 50 51 51 52 52 53 54 54 52 53 54 52 50 49 48 49 48 47 47 45 42 43 43 43 44 45 47 49 47 47 47 46 45 44 44 44 47 46 42 43 47 48 47 47 45 43 41 36 36 39 38 38 39 37 34 34 34 35 36 37 37 38 39 42 43 43 44 45 44 42 42 44 46 46 46 43 41 39
47 51 51 49 47 47 47 48 50 50 50 50 51 53 54 53 52 53 50 49 50 48 49 50 49 49 46 41 40 40 40 43 43 48 52 47 45 46 45 44 45 44 41 47 50 44 44 47 50 51 49 46 43 41 37 37 39 36 37 39 36 34 32 32 36 38 37 38 38 37 41 42 41 44 47 48 47 44 44 48 48 46 44 44 42
47 51 51 50 48 46 46 47 48 51 51 48 48 49 52 52 50 50 49 50 51 49 50 51 50 49 45 40 37 38 39 40 41 47 50 46 45 46 43 43 47 47 43 47 51 48 47 45 46 50 49 47 45 42 38 39 40 38 40 40 36 34 31 31 36 37 37 40 39 37 39 40 41 43 44 45 48 47 46 49 49 46 44 45 45
48 49 50 51 48 47 48 48 48 50 50 47 47 48 48 49 49 48 48 49 50 49 48 49 52 51 44 39 36 36 37 37 39 44 47 47 46 46 44 44 47 48 47 51 51 49 51 47 44 47 48 49 48 43 40 42 46 45 42 38 36 36 32 30 34 37 38 39 38 37 38 40 40 41 44 45 45 48 51 51 51 49 45 44 46
47 48 50 51 50 49 49 48 48 49 48 46 48 48 47 47 47 47 48 48 47 48 47 48 53 52 43 37 36 36 36 36 38 42 47 47 45 44 43 44 45 45 48 51 50 47 47 48 46 47 48 49 47 43 39 40 47 49 42 35 37 38 34 31 34 38 39 37 36 38 40 41 42 42 44 45 42 47 53 52 53 54 49 45 47
46 47 50 52 53 52 49 48 50 50 47 45 48 49 48 49 47 46 47 48 47 48 47 46 48 48 42 38 37 36 35 35 36 39 44 46 46 44 41 43 46 46 47 50 52 48 45 47 47 46 50 50 44 39 38 39 40 41 37 34 36 37 36 36 34 35 39 38 35 39 42 40 42 44 43 46 47 51 53 52 55 59 56 51 47
47 48 50 52 55 54 49 48 52 52 47 46 49 49 48 50 48 47 48 48 46 46 47 46 45 45 42 39 38 37 36 35 35 36 39 42 44 41 38 42 46 46 46 46 48 46 44 47 46 45 49 49 41 35 38 39 34 34 34 34 37 37 37 38 36 38 44 44 36 34 39 41 42 44 45 49 52 52 51 49 54 59 60 58 52
47 48 49 50 53 54 50 47 51 53 50 48 50 50 49 48 49 51 51 48 47 46 45 45 45 43 39 37 38 38 37 35 34 34 34 36 39 37 35 39 42 41 40 41 41 42 44 47 46 47 48 46 41 36 37 39 37 37 36 34 35 39 41 41 44 49 48 47 41 36 43 47 42 42 45 48 48 49 48 46 50 53 56 62 59
46 47 48 48 50 53 51 49 49 52 53 51 50 52 51 49 51 55 54 48 49 49 46 46 45 43 39 36 37 37 38 37 36 35 36 38 39 39 40 38 37 37 38 39 40 41 45 48 46 48 49 45 40 36 38 42 42 40 38 37 38 40 43 44 50 56 50 47 46 44 49 48 37 39 45 43 43 46 46 47 49 49 50 55 56
45 46 48 48 47 50 50 49 49 51 54 52 51 54 53 52 53 54 53 50 50 51 50 49 46 45 42 38 37 37 40 42 40 41 42 41 39 43 47 39 34 37 38 38 41 44 46 48 46 46 50 48 42 38 38 41 42 41 43 48 51 48 47 49 51 53 51 50 50 46 48 46 36 39 44 38 38 43 44 46 47 45 42 42 45
43 44 46 47 47 48 48 47 48 50 52 51 52 54 51 51 53 52 53 52 51 52 51 51 49 48 48 44 40 38 43 47 45 46 46 41 39 42 44 41 36 38 40 41 44 47 47 46 45 46 49 48 43 40 39 39 41 43 45 48 54 53 52 54 50 50 53 54 51 43 45 48 37 33 39 37 37 40 42 43 40 38 39 39 41
42 42 43 45 48 48 45 44 47 50 51 48 48 50 47 49 52 53 55 54 52 50 50 51 50 49 49 48 46 42 44 47 45 46 46 40 40 40 41 44 42 39 41 45 44 45 46 45 46 48 47 46 44 41 38 38 40 42 44 44 48 49 49 51 47 46 50 52 52 45 42 48 43 36 41 44 41 37 40 42 36 35 39 43 44
42 42 41 43 47 49 44 42 47 51 52 48 46 48 48 49 52 53 55 56 53 50 50 50 49 49 49 49 49 47 44 47 48 46 44 41 41 40 39 43 45 42 40 42 43 45 46 45 46 47 44 43 45 43 39 38 39 42 43 42 43 44 45 48 48 48 46 46 54 53 45 47 50 49 51 55 50 40 37 39 36 35 37 42 43
41 42 43 42 44 49 45 42 45 49 52 50 46 48 50 51 54 55 57 59 56 52 51 52 50 50 50 49 50 49 44 46 50 46 42 42 41 40 39 40 44 44 41 42 44 44 45 43 41 40 38 39 43 44 42 40 39 41 42 42 41 42 42 42 43 47 49 49 54 57 53 49 51 52 53 59 57 43 37 38 38 37 36 38 39
41 41 43 43 44 47 45 42 43 45 49 49 46 50 51 52 56 58 59 62 60 55 52 54 53 52 52 50 49 50 47 45 47 45 42 42 41 40 40 38 41 43 41 43 44 42 43 40 37 38 39 40 41 42 42 42 41 40 40 42 42 42 43 43 41 44 50 54 55 55 53 48 48 46 46 53 56 46 44 48 46 42 42 41 38
44 42 43 45 45 43 40 39 41 42 45 46 47 50 52 52 56 61 62 63 62 57 55 57 55 53 52 51 48 48 49 46 44 43 41 42 42 41 41 39 40 42 42 44 44 40 39 37 38 41 42 42 40 39 40 42 43 41 39 40 41 41 41 44 48 49 48 50 54 57 55 49 46 44 41 46 54 50 48 50 47 43 46 46 40
45 43 43 46 48 44 37 34 37 40 40 42 45 50 52 52 56 62 63 62 61 59 59 60 55 51 54 54 50 46 48 49 47 43 40 41 41 42 44 44 43 43 42 42 43 41 40 39 41 41 39 39 40 41 41 41 41 41 39 38 39 41 40 40 45 46 45 47 52 59 62 55 50 51 46 42 48 52 50 52 50 44 46 48 42